Location: Narrabri
(30.3170°S, 149.7830°E)
Time: 10:00:35
(UTC+11:00)

Envisat - Pass Details

Date: 13 October 2017
Orbit: 764 x 766 km, 98.2° (Epoch: 11 December)

Event Time Altitude Azimuth Distance (km) Brightness Sun altitude
Rises 22:06:30 0° 179° (S) 3,260 6.7 -35.7°
Reaches altitude 10° 22:08:57 10° 186° (S) 2,326 5.9 -36.1°
Enters shadow 22:11:36 27° 208° (SSW) 1,468 4.9 -36.6°
